User: anonymous   Login
Location: Linz
(48.3300°N, 14.3000°E)
Time: 04:17:15
(UTC+02:00)
Language:

Tiangong 2 - Orbit

View from above orbital plane
View from above orbital plane
View from above satellite
View from above satellite

Ground track
Ground track

The orbit data is extracted from the following two-line orbital elements,

1 41765U 16057A   18201.50237303  .00003159  00000-0  44057-4 0  9999
2 41765  42.7841 142.2400 0005874 144.0045   8.0086 15.59072376105223
Epoch (UTC): 20 July 2018 12:03:25
Eccentricity: 0.0005874
inclination: 42.7841°
perigee height: 386 km
apogee height: 394 km
right ascension of ascending node: 142.2400°
argument of perigee: 144.0045°
revolutions per day: 15.59072376
mean anomaly at epoch: 8.0086°
orbit number at epoch: 10522

The dashed part of the orbit path shows where the satellite is in the earth's shadow,  

DLR